Weather History for Klawock, AK

Change the Weather History Date:

Tuesday, March 18, 2014

  Actual Average Record
Temperature  
Mean Temperature 38 °F -  
Max Temperature 42 °F 42 °F 52 °F (2011)
Min Temperature 33 °F 30 °F 16 °F (2006)
Degree Days  
Heating Degree Days 28    
Moisture  
Dew Point 36 °F    
Average Humidity 94    
Maximum Humidity 100    
Minimum Humidity 86    
Precipitation  
Precipitation 1.10 in - - ()
Sea Level Pressure  
Sea Level Pressure 29.79 in    
Wind  
Wind Speed 5 mph (SSW)    
Max Wind Speed 14 mph    
Max Gust Speed 23 mph    
Visibility 7 miles    
Events Rain    
Averages and records for this station are not official NWS values.
T = Trace of Precipitation, MM = Missing Value Source: NWS Daily Summary

Daily Weather History Graph

Daily Weather History Graph

Search for Another Location

Airport:

Trip Planner

Search our weather history database for the weather conditions in past years. The results will help you decide how hot, cold, wet, or windy it might be!

Date:

Astronomy

Mar. 18, 2014 Rise Set
Actual Time 6:59 AM AKDT 7:02 PM AKDT
Civil Twilight 6:22 AM AKDT 7:39 PM AKDT
Nautical Twilight 5:39 AM AKDT 8:22 PM AKDT
Astronomical Twilight 4:53 AM AKDT 9:08 PM AKDT
Moon 9:56 PM AKDT (3/18) 7:29 AM AKDT (3/18)
Length of Visible Light 13h 16m
Length of Day
12h 03m
Waning Gibbous, 95% of the Moon is Illuminated
Mar 18
Waning Gibbous
Mar 23
Last Quarter
Mar 30
New
Apr 7
First Quarter
Apr 14
Full

Hourly Weather History & Observations

Time (AKDT) Temp. Windchill Dew Point Humidity Pressure Visibility Wind Dir Wind Speed Gust Speed Precip Events Conditions
12:53 AM 37.0 °F 33.3 °F 34.0 °F 89% 30.02 in 10.0 mi NE 4.6 mph - 0.00 in Rain Light Rain
1:53 AM 36.0 °F 33.3 °F 35.1 °F 97% 29.98 in 8.0 mi NNE 3.5 mph - 0.01 in Rain Light Rain
2:51 AM 35.6 °F 31.7 °F 35.6 °F 100% 29.95 in 10.0 mi NNE 4.6 mph - 0.04 in Rain Light Rain
2:53 AM 36.0 °F 33.3 °F 35.1 °F 97% 29.96 in 10.0 mi Variable 3.5 mph - 0.04 in Rain Light Rain
3:30 AM 36.0 °F - 35.1 °F 97% 29.93 in 9.0 mi Calm Calm - 0.02 in Rain Light Rain
3:49 AM 35.6 °F - 35.6 °F 100% 29.91 in 7.0 mi Calm Calm - 0.03 in Rain Light Rain
3:53 AM 37.0 °F 32.4 °F 35.1 °F 93% 29.91 in 7.0 mi North 5.8 mph - 0.04 in Rain Light Rain
4:53 AM 37.0 °F - 35.1 °F 93% 29.86 in 9.0 mi Calm Calm - 0.04 in Rain Light Rain
5:53 AM 37.0 °F - 36.0 °F 96% 29.82 in 10.0 mi Calm Calm - 0.04 in Rain Light Rain
6:34 AM 37.9 °F 34.4 °F 36.0 °F 93% 29.79 in 10.0 mi Variable 4.6 mph - 0.02 in Rain Light Rain
6:53 AM 37.9 °F 32.7 °F 36.0 °F 93% 29.78 in 10.0 mi South 6.9 mph - 0.03 in Rain Light Rain
7:44 AM 37.9 °F 33.5 °F 36.0 °F 93% 29.75 in 4.0 mi Variable 5.8 mph - 0.06 in Rain Rain
7:53 AM 37.9 °F 33.5 °F 36.0 °F 93% 29.75 in 3.0 mi SSE 5.8 mph - 0.08 in Rain Rain
8:07 AM 37.9 °F 33.5 °F 36.0 °F 93% 29.74 in 2.5 mi Variable 5.8 mph - 0.04 in Rain Rain
8:14 AM 37.9 °F 32.7 °F 36.0 °F 93% 29.73 in 3.0 mi Variable 6.9 mph - 0.06 in Rain Rain
8:53 AM 39.9 °F 35.8 °F 37.0 °F 89% 29.73 in 4.0 mi SSE 5.8 mph - 0.16 in Rain Rain
9:53 AM 39.9 °F 35.8 °F 37.9 °F 93% 29.71 in 4.0 mi Variable 5.8 mph - 0.14 in Rain Rain
10:53 AM 41.0 °F 37.1 °F 39.0 °F 93% 29.69 in 10.0 mi SSE 5.8 mph - 0.06 in Rain Light Rain
11:53 AM 41.0 °F 36.4 °F 39.0 °F 93% 29.68 in 4.0 mi Variable 6.9 mph - 0.09 in Rain Rain
12:02 PM 41.0 °F 34.7 °F 39.9 °F 96% 29.68 in 2.0 mi SSW 10.4 mph 16.1 mph 0.03 in Rain Rain
12:06 PM 41.0 °F 37.1 °F 39.0 °F 93% 29.68 in 3.0 mi SSW 5.8 mph 16.1 mph 0.04 in Rain Rain
12:15 PM 41.0 °F 35.8 °F 39.9 °F 96% 29.68 in 2.5 mi South 8.1 mph - 0.07 in Rain Rain
12:24 PM 42.1 °F 38.4 °F 39.9 °F 92% 29.68 in 2.5 mi SSW 5.8 mph - 0.10 in Rain Rain
12:29 PM 41.0 °F 37.1 °F 39.9 °F 96% 29.68 in 3.0 mi Variable 5.8 mph - 0.10 in Rain Rain
12:43 PM 41.0 °F 37.1 °F 39.9 °F 96% 29.68 in 5.0 mi Variable 5.8 mph - 0.12 in Rain Rain
12:53 PM 41.0 °F 36.4 °F 39.0 °F 93% 29.68 in 5.0 mi Variable 6.9 mph - 0.14 in Rain Rain
1:34 PM 41.0 °F 33.9 °F 39.9 °F 96% 29.68 in 2.5 mi SSW 12.7 mph 17.3 mph 0.06 in Rain Rain
1:42 PM 41.0 °F 35.8 °F 39.9 °F 96% 29.68 in 5.0 mi South 8.1 mph 17.3 mph 0.07 in Rain Light Rain
1:53 PM 41.0 °F 33.5 °F 39.9 °F 96% 29.70 in 2.0 mi SW 13.8 mph 18.4 mph 0.09 in Rain Rain
2:00 PM 39.0 °F 32.3 °F 37.9 °F 96% 29.70 in 1.8 mi West 10.4 mph 21.9 mph 0.02 in Rain Rain
2:03 PM 39.0 °F 31.8 °F 37.9 °F 96% 29.70 in 2.0 mi West 11.5 mph 21.9 mph 0.02 in Rain Rain
2:14 PM 39.0 °F 34.0 °F 37.0 °F 93% 29.71 in 3.0 mi West 6.9 mph 21.9 mph 0.04 in Rain Rain
2:27 PM 37.9 °F 33.5 °F 37.0 °F 97% 29.72 in 5.0 mi WSW 5.8 mph 19.6 mph 0.05 in Rain Light Rain
2:51 PM 37.4 °F 30.8 °F 37.4 °F 100% 29.73 in 10.0 mi WSW 9.2 mph 23.0 mph 0.05 in   Overcast
2:53 PM 37.9 °F 31.5 °F 37.0 °F 97% 29.73 in 10.0 mi WSW 9.2 mph 23.0 mph 0.05 in   Overcast
3:53 PM 37.9 °F 30.9 °F 36.0 °F 93% 29.75 in 10.0 mi WSW 10.4 mph 17.3 mph 0.00 in   Overcast
4:53 PM 37.9 °F 29.6 °F 36.0 °F 93% 29.76 in 10.0 mi West 13.8 mph 19.6 mph 0.00 in   Overcast
5:53 PM 37.0 °F 31.0 °F 36.0 °F 96% 29.78 in 10.0 mi SW 8.1 mph - 0.03 in Rain Light Rain
6:53 PM 37.0 °F 31.6 °F 33.1 °F 86% 29.80 in 10.0 mi Variable 6.9 mph - 0.00 in   Overcast
7:24 PM 36.0 °F 30.3 °F 33.1 °F 89% 29.80 in 10.0 mi South 6.9 mph - 0.00 in Rain Light Rain
7:53 PM 36.0 °F 32.1 °F 34.0 °F 93% 29.82 in 10.0 mi SSW 4.6 mph - 0.00 in   Mostly Cloudy
8:32 PM 35.1 °F 30.1 °F 34.0 °F 96% 29.83 in 10.0 mi South 5.8 mph - 0.00 in   Mostly Cloudy
8:44 PM 35.1 °F 32.2 °F 33.1 °F 92% 29.83 in 10.0 mi South 3.5 mph - 0.00 in   Mostly Cloudy
8:53 PM 34.0 °F 29.8 °F 33.1 °F 96% 29.83 in 10.0 mi South 4.6 mph - 0.00 in   Scattered Clouds
9:10 PM 34.0 °F 27.2 °F 33.1 °F 96% 29.84 in 5.0 mi WSW 8.1 mph - 0.02 in Rain Light Rain
9:41 PM 35.1 °F 31.0 °F 33.1 °F 92% 29.85 in 10.0 mi South 4.6 mph - 0.02 in   Overcast
9:51 PM 33.8 °F 30.8 °F 33.8 °F 100% 29.85 in 5.0 mi Variable 3.5 mph - 0.03 in Rain Light Rain
9:53 PM 34.0 °F 31.0 °F 33.1 °F 96% 29.86 in 7.0 mi SSE 3.5 mph - 0.03 in Rain Light Rain
10:40 PM 35.1 °F 30.1 °F 33.1 °F 92% 29.86 in 10.0 mi South 5.8 mph - 0.02 in   Overcast
10:51 PM 35.6 °F - 33.8 °F 93% 29.87 in 10.0 mi Calm Calm - 0.02 in   Overcast
10:53 PM 35.1 °F - 34.0 °F 96% 29.87 in 10.0 mi Calm Calm - 0.02 in   Overcast
11:07 PM 35.1 °F 29.3 °F 33.1 °F 92% 29.87 in 6.0 mi SSW 6.9 mph - 0.01 in Rain Light Rain
11:24 PM 34.0 °F 28.8 °F 33.1 °F 96% 29.87 in 10.0 mi SSE 5.8 mph - 0.01 in   Mostly Cloudy
11:53 PM 35.1 °F 30.1 °F 32.0 °F 89% 29.88 in 10.0 mi South 5.8 mph - 0.01 in   Mostly Cloudy